• In Russia
  • List of Countries
  • For 7 days
  • Water Temperature
  • Satellite Maps
  • Weather Map
  • Weather Widgets
  • user-avatar
    Login

    Hourly Weather Melanowo

    Today, 21 October, Sunday

    Time Temperature Precipitation Wind Pressure Humidity
    00:00 +8°C° 0.2 mm 3 mps 760 mmHg 78%
    01:00 +8°C° 0.2 mm 2 mps 760 mmHg 81%
    02:00 +8°C° 0 mm 2 mps 760 mmHg 83%
    03:00 +7°C° 0 mm 2 mps 760 mmHg 86%
    04:00 +7°C° 0 mm 2 mps 760 mmHg 88%
    05:00 +8°C° 0 mm 1 mps 760 mmHg 90%
    06:00 +7°C° 0 mm 1 mps 760 mmHg 92%
    07:00 +7°C° 0 mm 1 mps 760 mmHg 93%
    08:00 +8°C° 0 mm 1 mps 761 mmHg 87%
    09:00 +10°C° 0 mm 1 mps 761 mmHg 80%
    10:00 +11°C° 0 mm 1 mps 761 mmHg 74%
    11:00 +12°C° 0 mm 1 mps 761 mmHg 69%
    12:00 +12°C° 0 mm 0 mps 761 mmHg 65%
    13:00 +13°C° 0 mm 0 mps 761 mmHg 60%
    14:00 +13°C° 0 mm 0 mps 761 mmHg 61%
    15:00 +12°C° 0 mm 0 mps 760 mmHg 63%
    16:00 +12°C° 0 mm 0 mps 760 mmHg 64%
    17:00 +11°C° 0 mm 0 mps 760 mmHg 68%
    18:00 +10°C° 0 mm 0 mps 760 mmHg 72%
    19:00 +9°C° 0 mm 0 mps 761 mmHg 76%
    20:00 +9°C° 0 mm 1 mps 761 mmHg 78%
    21:00 +9°C° 0 mm 1 mps 761 mmHg 79%
    22:00 +9°C° 0 mm 1 mps 761 mmHg 81%
    23:00 +8°C° 0 mm 1 mps 761 mmHg 83%

    Tomorrow, 22 October, Monday

    Time Temperature Precipitation Wind Pressure Humidity
    00:00 +8°C° 0 mm 1 mps 760 mmHg 84%
    01:00 +8°C° 0 mm 1 mps 760 mmHg 86%
    02:00 +7°C° 0 mm 1 mps 760 mmHg 86%
    03:00 +7°C° 0 mm 1 mps 760 mmHg 87%
    04:00 +7°C° 0 mm 1 mps 760 mmHg 88%
    05:00 +7°C° 0 mm 1 mps 760 mmHg 88%
    06:00 +5°C° 0 mm 2 mps 759 mmHg 88%
    07:00 +5°C° 0 mm 2 mps 759 mmHg 89%
    08:00 +7°C° 0 mm 2 mps 759 mmHg 81%
    09:00 +9°C° 0 mm 2 mps 759 mmHg 73%
    10:00 +12°C° 0 mm 2 mps 759 mmHg 65%
    11:00 +12°C° 0 mm 3 mps 759 mmHg 61%
    12:00 +13°C° 0 mm 3 mps 758 mmHg 58%
    13:00 +13°C° 0 mm 3 mps 758 mmHg 54%
    14:00 +13°C° 0.1 mm 4 mps 758 mmHg 59%
    15:00 +12°C° 0.1 mm 4 mps 758 mmHg 65%
    16:00 +11°C° 0.1 mm 4 mps 758 mmHg 70%
    17:00 +11°C° 0.3 mm 4 mps 758 mmHg 75%
    18:00 +9°C° 0.3 mm 5 mps 758 mmHg 79%
    19:00 +9°C° 0.3 mm 5 mps 759 mmHg 83%
    20:00 +8°C° 0.1 mm 5 mps 759 mmHg 83%
    21:00 +7°C° 0.1 mm 4 mps 759 mmHg 84%
    22:00 +6°C° 0.1 mm 4 mps 760 mmHg 84%
    23:00 +6°C° 0 mm 4 mps 760 mmHg 85%

    Day after tomorrow, 23 October, Tuesday

    Time Temperature Precipitation Wind Pressure Humidity
    00:00 +5°C° 0 mm 4 mps 760 mmHg 85%
    01:00 +4°C° 0 mm 3 mps 760 mmHg 86%
    02:00 +4°C° 0 mm 3 mps 759 mmHg 86%
    03:00 +4°C° 0 mm 4 mps 759 mmHg 87%
    04:00 +3°C° 0 mm 4 mps 759 mmHg 87%
    05:00 +3°C° 0 mm 4 mps 758 mmHg 87%
    06:00 +4°C° 0 mm 4 mps 758 mmHg 86%
    07:00 +4°C° 0 mm 4 mps 758 mmHg 86%
    08:00 +5°C° 0 mm 5 mps 757 mmHg 80%
    09:00 +5°C° 0 mm 6 mps 756 mmHg 74%
    10:00 +6°C° 0 mm 8 mps 755 mmHg 68%
    11:00 +6°C° 0.3 mm 8 mps 754 mmHg 69%
    12:00 +6°C° 0.3 mm 9 mps 752 mmHg 69%
    13:00 +6°C° 0.3 mm 10 mps 751 mmHg 70%
    14:00 +6°C° 1.2 mm 10 mps 750 mmHg 73%
    15:00 +6°C° 1.2 mm 10 mps 748 mmHg 76%
    16:00 +6°C° 1.2 mm 11 mps 747 mmHg 79%
    17:00 +7°C° 0.5 mm 11 mps 746 mmHg 79%
    18:00 +7°C° 0.5 mm 12 mps 744 mmHg 79%
    19:00 +8°C° 0.5 mm 12 mps 743 mmHg 79%
    20:00 +9°C° 1.4 mm 12 mps 743 mmHg 79%
    21:00 +9°C° 1.4 mm 11 mps 743 mmHg 78%
    22:00 +9°C° 1.4 mm 11 mps 742 mmHg 77%
    23:00 +9°C° 0.3 mm 11 mps 742 mmHg 75%

    24 October, Wednesday

    Time Temperature Precipitation Wind Pressure Humidity
    00:00 +8°C° 0.3 mm 10 mps 742 mmHg 74%
    01:00 +7°C° 0.3 mm 10 mps 743 mmHg 72%
    02:00 +7°C° 0.1 mm 9 mps 743 mmHg 71%
    03:00 +6°C° 0.1 mm 9 mps 743 mmHg 69%
    04:00 +5°C° 0.1 mm 9 mps 744 mmHg 68%
    05:00 +5°C° 0.1 mm 9 mps 744 mmHg 68%
    06:00 +4°C° 0.1 mm 8 mps 745 mmHg 68%
    07:00 +4°C° 0.1 mm 8 mps 746 mmHg 69%
    08:00 +5°C° 0.1 mm 8 mps 746 mmHg 63%
    09:00 +5°C° 0.1 mm 9 mps 747 mmHg 58%
    10:00 +6°C° 0.1 mm 9 mps 747 mmHg 53%
    11:00 +6°C° 0.1 mm 10 mps 747 mmHg 51%
    12:00 +7°C° 0.1 mm 10 mps 747 mmHg 49%
    13:00 +7°C° 0.1 mm 10 mps 747 mmHg 48%
    14:00 +7°C° 0 mm 9 mps 748 mmHg 49%
    15:00 +6°C° 0 mm 8 mps 748 mmHg 50%
    16:00 +6°C° 0 mm 7 mps 748 mmHg 51%
    17:00 +5°C° 0 mm 7 mps 749 mmHg 54%
    18:00 +5°C° 0 mm 6 mps 749 mmHg 56%
    19:00 +4°C° 0 mm 6 mps 749 mmHg 59%
    20:00 +4°C° 0 mm 6 mps 750 mmHg 61%
    21:00 +4°C° 0 mm 6 mps 750 mmHg 63%
    22:00 +3°C° 0 mm 6 mps 750 mmHg 64%
    23:00 +3°C° 0 mm 6 mps 750 mmHg 67%

    25 October, Thursday

    Time Temperature Precipitation Wind Pressure Humidity
    00:00 +3°C° 0 mm 6 mps 750 mmHg 70%
    01:00 +3°C° 0 mm 5 mps 750 mmHg 73%
    02:00 +3°C° 0 mm 5 mps 750 mmHg 76%
    03:00 +3°C° 0 mm 5 mps 749 mmHg 79%
    04:00 +5°C° 0 mm 5 mps 749 mmHg 82%
    05:00 +6°C° 0.6 mm 5 mps 749 mmHg 86%
    06:00 +6°C° 0.6 mm 5 mps 748 mmHg 89%
    07:00 +7°C° 0.6 mm 5 mps 747 mmHg 92%
    08:00 +8°C° 0.6 mm 6 mps 747 mmHg 90%
    09:00 +9°C° 0.6 mm 7 mps 747 mmHg 87%
    10:00 +10°C° 0.6 mm 8 mps 747 mmHg 84%
    11:00 +10°C° 0.2 mm 8 mps 747 mmHg 82%
    12:00 +10°C° 0.2 mm 8 mps 747 mmHg 79%
    13:00 +10°C° 0.2 mm 8 mps 747 mmHg 77%
    14:00 +10°C° 0.1 mm 8 mps 747 mmHg 77%
    15:00 +10°C° 0.1 mm 8 mps 747 mmHg 78%
    16:00 +9°C° 0.1 mm 8 mps 747 mmHg 79%
    17:00 +9°C° 0.1 mm 7 mps 747 mmHg 80%
    18:00 +9°C° 0.1 mm 7 mps 747 mmHg 81%
    19:00 +9°C° 0.1 mm 7 mps 747 mmHg 82%
    20:00 +10°C° 0.1 mm 7 mps 748 mmHg 82%
    21:00 +10°C° 0.1 mm 7 mps 748 mmHg 83%
    22:00 +10°C° 0.1 mm 7 mps 748 mmHg 83%
    23:00 +9°C° 0.1 mm 6 mps 748 mmHg 83%

    26 October, Friday

    Time Temperature Precipitation Wind Pressure Humidity
    00:00 +9°C° 0.1 mm 6 mps 747 mmHg 83%
    01:00 +9°C° 0.1 mm 6 mps 747 mmHg 83%
    02:00 +9°C° 0 mm 6 mps 747 mmHg 84%
    03:00 +9°C° 0 mm 6 mps 747 mmHg 85%
    04:00 +8°C° 0 mm 5 mps 747 mmHg 86%
    05:00 +8°C° 0 mm 5 mps 747 mmHg 86%
    06:00 +7°C° 0 mm 5 mps 747 mmHg 87%
    07:00 +7°C° 0 mm 4 mps 746 mmHg 88%
    08:00 +8°C° 0 mm 5 mps 746 mmHg 83%
    09:00 +8°C° 0 mm 5 mps 746 mmHg 77%
    10:00 +9°C° 0 mm 5 mps 746 mmHg 72%
    11:00 +9°C° 0 mm 5 mps 746 mmHg 70%
    12:00 +9°C° 0 mm 5 mps 745 mmHg 69%
    13:00 +10°C° 0 mm 5 mps 745 mmHg 67%
    14:00 +10°C° 0 mm 4 mps 744 mmHg 69%
    15:00 +10°C° 0 mm 3 mps 744 mmHg 70%
    16:00 +10°C° 0 mm 3 mps 743 mmHg 71%
    17:00 +10°C° 0 mm 2 mps 743 mmHg 73%
    18:00 +9°C° 0 mm 2 mps 743 mmHg 76%
    19:00 +9°C° 0 mm 2 mps 743 mmHg 78%
    20:00 +8°C° 0 mm 2 mps 743 mmHg 80%
    21:00 +8°C° 0 mm 2 mps 742 mmHg 82%
    22:00 +8°C° 0 mm 2 mps 742 mmHg 84%
    23:00 +8°C° 0 mm 2 mps 742 mmHg 85%
    Show more